This is the latest recevied weather packets stored in our database for station/object KD7AWQ. If no packets are shown the sender has not sent any weather packets the latest 10 day(s).
| Time | Temp. | Humidity | Pressure | Rain* | Wind** | Luminosity | Snow |
|---|---|---|---|---|---|---|---|
| 1787875485 | 35.56° C | 16% | 1185.5 hPa | 0 mm | - | 71 W/m² | - |
| 1787875178 | 35.56° C | 16% | 1185.2 hPa | 0 mm | - | 75 W/m² | - |
| 1787874878 | 36.11° C | 16% | 1185.6 hPa | 0 mm | - | 84 W/m² | - |
| 1787874573 | 36.11° C | 17% | 1185.4 hPa | 0 mm | - | 94 W/m² | - |
| 1787874266 | 36.67° C | 17% | 1185.3 hPa | 0 mm | - | 111 W/m² | - |
| 1787873961 | 36.11° C | 17% | 1185.3 hPa | 0 mm | - | 131 W/m² | - |
| 1787873661 | 36.67° C | 17% | 1185.3 hPa | 0 mm | - | 144 W/m² | - |
| 1787873355 | 36.11° C | 17% | 1185.6 hPa | 0 mm | - | 139 W/m² | - |
| 1787873055 | 36.67° C | 17% | 1185.5 hPa | 0 mm | - | 136 W/m² | - |
| 1787872750 | 36.67° C | 15% | 1185.4 hPa | 0 mm | - | 133 W/m² | - |
| 1787872446 | 36.67° C | 15% | 1185.4 hPa | 0 mm | - | 139 W/m² | - |
| 1787872140 | 37.22° C | 15% | 1185.5 hPa | 0 mm | - | 143 W/m² | - |
| 1787871839 | 36.67° C | 15% | 1185.5 hPa | 0 mm | - | 153 W/m² | - |
| 1787871535 | 37.22° C | 15% | 1185.4 hPa | 0 mm | - | 158 W/m² | - |
| 1787871230 | 37.22° C | 15% | 1185.5 hPa | 0 mm | - | 161 W/m² | - |
| 1787870925 | 37.22° C | 15% | 1185.6 hPa | 0 mm | - | 162 W/m² | - |
| 1787870619 | 37.78° C | 15% | 1185.6 hPa | 0 mm | - | 152 W/m² | - |
| 1787870314 | 38.33° C | 14% | 1185.5 hPa | 0 mm | - | 153 W/m² | - |
| 1787870010 | 38.89° C | 13% | 1185.6 hPa | 0 mm | - | 628 W/m² | - |
| 1787869709 | 38.33° C | 14% | 1185.6 hPa | 0 mm | - | 692 W/m² | - |
| 1787869408 | 38.33° C | 14% | 1185.6 hPa | 0 mm | - | 738 W/m² | - |
| 1787869103 | 39.44° C | 13% | 1185.7 hPa | 0 mm | - | 757 W/m² | - |
| 1787868802 | 39.44° C | 13% | 1185.7 hPa | 0 mm | - | 781 W/m² | - |
| 1787868501 | 38.33° C | 14% | 1186.1 hPa | 0 mm | - | 800 W/m² | - |
| 1787868200 | 38.89° C | 14% | 1186 hPa | 0 mm | - | 680 W/m² | - |
* Rain latest hour (hover to see other rain measurements)
** Current wind speed in m/s (hover to see current wind gust speed)